This is the latest recevied weather packets stored in our database for station/object OE2SWM. If no packets are shown the sender has not sent any weather packets the latest 10 day(s).
| Time | Temp. | Humidity | Pressure | Rain* | Wind** | Luminosity | Snow |
|---|---|---|---|---|---|---|---|
| 1777838400 | 10.56° C | 60% | 970 hPa | 0 mm | - | - | - |
| 1777837800 | 10.56° C | 60% | 970 hPa | 0 mm | - | - | - |
| 1777837200 | 11.67° C | 58% | 970 hPa | 0 mm | - | - | - |
| 1777836600 | 12.78° C | 55% | 970 hPa | 0 mm | - | - | - |
| 1777836000 | 12.78° C | 48% | 970 hPa | 0 mm | - | - | - |
| 1777835400 | 12.78° C | 55% | 969 hPa | 0 mm | - | - | - |
| 1777834800 | 12.78° C | 55% | 969 hPa | 0 mm | - | - | - |
| 1777834200 | 13.89° C | 54% | 969 hPa | 0 mm | - | - | - |
| 1777833600 | 13.89° C | 55% | 969 hPa | 0 mm | - | - | - |
| 1777833000 | 13.89° C | 54% | 969 hPa | 0 mm | - | - | - |
| 1777832400 | 15.56° C | 51% | 969 hPa | 0 mm | - | - | - |
| 1777831800 | 16.67° C | 50% | 969 hPa | 0 mm | - | - | - |
| 1777831200 | 17.78° C | 47% | 969 hPa | 0 mm | - | - | - |
| 1777830600 | 17.78° C | 45% | 969 hPa | 0 mm | - | - | - |
| 1777830000 | 18.89° C | 43% | 969 hPa | 0 mm | - | - | - |
| 1777829400 | 18.89° C | 38% | 968 hPa | 0 mm | - | - | - |
| 1777828800 | 20° C | 34% | 969 hPa | 0 mm | - | - | - |
| 1777828200 | 20.56° C | 34% | 968 hPa | 0 mm | - | - | - |
| 1777827600 | 20.56° C | 33% | 969 hPa | 0 mm | - | - | - |
| 1777827000 | 21.67° C | 33% | 968 hPa | 0 mm | - | - | - |
| 1777826400 | 21.67° C | 32% | 968 hPa | 0 mm | - | - | - |
| 1777825800 | 21.67° C | 31% | 968 hPa | 0 mm | - | - | - |
| 1777825200 | 21.67° C | 30% | 968 hPa | 0 mm | - | - | - |
| 1777824600 | 22.78° C | 30% | 968 hPa | 0 mm | - | - | - |
| 1777824000 | 22.78° C | 28% | 968 hPa | 0 mm | - | - | - |
* Rain latest hour (hover to see other rain measurements)
** Current wind speed in m/s (hover to see current wind gust speed)